Terminal Aerodrome Forecast
Issued by NWS

Home | Current Version | Previous Version | Graphics & Text | Print | Product List | Glossary On
Versions: 1 2 3 4 5 6 7 8 9 10 11 12 13 14 15 16 17 18 19
000
FTUS45 KGGW 261800 AAA
TAFSDY
TAF AMD
KSDY 261859Z 2619/2718 VRB06KT P6SM FEW009 SCT015
      TEMPO 2619/2621 BKN015
     FM271200 27010KT P6SM FEW017 BKN130
      AMD LTD TO CLD VIS AND WIND=

USA.gov is the U.S. government's official web portal to all federal, state and local government web resources and services.